Ely, NV

3:41 PM PST on November 20, 2017 (GMT -0800)
Ely

Weather History for KELY - October, 2011

Change the Weather History Date:

Saturday, October 15, 2011

  Actual Average Record
Temperature  
Mean Temperature 59 °F 46 °F  
Max Temperature 77 °F 63 °F 82 °F (1991)
Min Temperature 41 °F 28 °F 11 °F (1897)
Degree Days  
Heating Degree Days 6 19  
Month to date heating degree days 230 255  
Since 1 July heating degree days 368 571  
Cooling Degree Days 0 0  
Month to date cooling degree days 0 0  
Year to date cooling degree days 259 218  
Growing Degree Days 10 (Base 50)    
Moisture  
Dew Point 29 °F    
Average Humidity 38    
Maximum Humidity 62    
Minimum Humidity 14    
Precipitation  
Precipitation 0.00 in 0.03 in 0.48 in (1938)
Month to date precipitation 1.14 0.48  
Year to date precipitation 11.40 7.95  
Snow  
Snow 0.00 in 0.10 in 2.00 in (1965)
Month to date snowfall 2.6 1.2  
Since 1 July snowfall 2.6 1.6  
Since 1 September snowfall 2.6 1.6  
Snow Depth 0.00 in    
Sea Level Pressure  
Sea Level Pressure 29.92 in    
Wind  
Wind Speed 8 mph (South)    
Max Wind Speed 22 mph    
Max Gust Speed 29 mph    
Visibility 10 miles    
Events      
T = Trace of Precipitation, MM = Missing Value Source: NWS Daily Summary

Daily Weather History Graph

Daily Weather History Graph

Search for Another Location

Airport or City:

Trip Planner

Search our weather history database for the weather conditions in past years. The results will help you decide how hot, cold, wet, or windy it might be!

Date:

Astronomy

Oct. 15, 2011 Rise Set
Actual Time 6:48 AM PDT 6:00 PM PDT
Civil Twilight 6:21 AM PDT 6:27 PM PDT
Nautical Twilight 5:50 AM PDT 6:58 PM PDT
Astronomical Twilight 5:19 AM PDT 7:29 PM PDT
Moon 8:02 PM PDT (10/15) 10:15 AM PDT (10/15)
Length of Visible Light 12h 05m
Length of Day
11h 11m
Waning Gibbous, 88% of the Moon is Illuminated
Oct 15
Waning Gibbous
Oct 19
Last Quarter
Oct 26
New
Nov 2
First Quarter
Nov 10
Full

Hourly Weather History & Observations

Time (PDT) Temp. Windchill Dew Point Humidity Pressure Visibility Wind Dir Wind Speed Gust Speed Precip Events Conditions
12:53 AM 48.9 °F - 33.1 °F 54% 29.91 in 10.0 mi Calm Calm - N/A   Clear
1:53 AM 48.9 °F - 30.9 °F 50% 29.91 in 10.0 mi SSW 3.5 mph - N/A   Clear
2:53 AM 46.9 °F - 30.9 °F 54% 29.91 in 10.0 mi South 8.1 mph - N/A   Clear
3:53 AM 46.0 °F 41.4 °F 30.9 °F 56% 29.91 in 10.0 mi South 9.2 mph - N/A   Clear
4:53 AM 45.0 °F 43.5 °F 30.9 °F 58% 29.92 in 10.0 mi South 3.5 mph - N/A   Clear
5:53 AM 45.0 °F - 30.0 °F 56% 29.99 in 10.0 mi Calm Calm - N/A   Clear
6:53 AM 43.0 °F - 30.0 °F 60% 30.00 in 10.0 mi Calm Calm - N/A   Clear
7:53 AM 46.0 °F 42.5 °F 32.0 °F 58% 30.01 in 10.0 mi SE 6.9 mph - N/A   Clear
8:53 AM 57.0 °F - 33.1 °F 40% 30.01 in 10.0 mi Calm Calm - N/A   Clear
9:53 AM 64.0 °F - 32.0 °F 30% 29.95 in 10.0 mi Calm Calm - N/A   Clear
10:53 AM 69.1 °F - 30.9 °F 24% 29.94 in 10.0 mi WNW 5.8 mph - N/A   Clear
11:53 AM 73.9 °F - 25.0 °F 16% 29.91 in 10.0 mi SSW 11.5 mph 18.4 mph N/A   Clear
12:53 PM 75.9 °F - 24.1 °F 15% 29.88 in 10.0 mi SW 11.5 mph 19.6 mph N/A   Clear
1:53 PM 75.9 °F - 25.0 °F 15% 29.86 in 10.0 mi SSW 11.5 mph - N/A   Clear
2:53 PM 77.0 °F - 25.0 °F 15% 29.86 in 10.0 mi SSW 16.1 mph 23.0 mph N/A   Clear
3:53 PM 73.0 °F - 24.1 °F 16% 29.87 in 10.0 mi SSW 15.0 mph 21.9 mph N/A   Clear
4:53 PM 71.1 °F - 25.0 °F 18% 29.88 in 10.0 mi South 10.4 mph - N/A   Clear
5:53 PM 63.0 °F - 28.0 °F 27% 29.91 in 10.0 mi South 8.1 mph - N/A   Clear
6:53 PM 57.0 °F - 30.9 °F 37% 29.95 in 10.0 mi SSE 10.4 mph - N/A   Clear
7:53 PM 57.0 °F - 30.0 °F 36% 29.94 in 10.0 mi South 11.5 mph - N/A   Clear
8:53 PM 55.9 °F - 30.0 °F 37% 29.91 in 10.0 mi SSW 12.7 mph - N/A   Clear
9:53 PM 55.0 °F - 28.9 °F 37% 29.90 in 10.0 mi SSW 11.5 mph - N/A   Clear
10:53 PM 54.0 °F - 27.0 °F 35% 29.89 in 10.0 mi SSW 11.5 mph - N/A   Clear
11:53 PM 50.0 °F - 26.1 °F 39% 29.91 in 10.0 mi South 5.8 mph - N/A   Clear